Portada
METAR-TAF:

METAR-TAF

Aeroports :

Orange Municipal Airport

Orange, Massachusetts, Estats Units d'Amèrica

latitud: 42-34-18N, longitud: 072-16-39W, altitud: 169 m

Observació

L'informe es va fer fa 19 minuts, a les 14:25 UTC
Vent 9 kt del Nord
Temperatura 3°C
Humitat 70%
Pressió 1013 hPa
Visibilitat: 16.1 km
Cel cobert a una alçada de 1400 ft

METAR: KORE 181425Z AUTO 01009KT 10SM OVC014 03/M02 A2992 RMK AO2 T00281022

Hora: 09:44 (14:44 UTC)


TAF: manca

Observacions i pronòstics meteorològics de més de 4000 aeroports (METAR i TAF).

Les estacions disponibles són els punts grocs i vermells al mapa.

Posi el ratolí al punt desitjat per veure el nom de l'estació.

Feu clic per veure les observacions i els pronòstics meteorològics.

Per canviar el mapa: feu clic els botons verds amb una creu de color negre per apropar; al botó verd amb un guió per allunyar la imatge; o en les fletxes verdes per a mapes adjacents.


METAR-TAF: